This is the latest recevied weather packets stored in our database for station/object KC1TEM-13. If no packets are shown the sender has not sent any weather packets the latest 10 day(s).
| Time | Temp. | Humidity | Pressure | Rain* | Wind** | Luminosity | Snow |
|---|---|---|---|---|---|---|---|
| 1777863488 | 3.33° C | 72% | 1009.9 hPa | 0 mm | - | 0 W/m² | - |
| 1777863185 | 3.89° C | 71% | 1009.7 hPa | 0 mm | - | 0 W/m² | - |
| 1777862881 | 3.89° C | 69% | 1009.9 hPa | 0 mm | - | 0 W/m² | - |
| 1777862578 | 3.89° C | 68% | 1009.9 hPa | 0 mm | - | 0 W/m² | - |
| 1777862275 | 3.89° C | 69% | 1009.8 hPa | 0 mm | - | 0 W/m² | - |
| 1777861971 | 3.89° C | 69% | 1009.7 hPa | 0 mm | - | 0 W/m² | - |
| 1777861667 | 3.89° C | 69% | 1009.8 hPa | 0 mm | - | 0 W/m² | - |
| 1777861364 | 4.44° C | 69% | 1009.7 hPa | 0 mm | - | 0 W/m² | - |
| 1777861061 | 4.44° C | 68% | 1009.8 hPa | 0 mm | - | 0 W/m² | - |
| 1777860758 | 4.44° C | 66% | 1009.7 hPa | 0 mm | - | 0 W/m² | - |
| 1777860455 | 4.44° C | 68% | 1009.7 hPa | 0 mm | - | 0 W/m² | - |
| 1777860151 | 4.44° C | 67% | 1009.6 hPa | 0 mm | - | 0 W/m² | - |
| 1777859847 | 4.44° C | 66% | 1009.7 hPa | 0 mm | - | 0 W/m² | - |
| 1777859544 | 5° C | 66% | 1009.8 hPa | 0 mm | - | 0 W/m² | - |
| 1777859240 | 5° C | 65% | 1009.5 hPa | 0 mm | - | 0 W/m² | - |
| 1777858937 | 5° C | 66% | 1009.4 hPa | 0 mm | - | 0 W/m² | - |
| 1777858635 | 5.56° C | 64% | 1009.5 hPa | 0 mm | - | 0 W/m² | - |
| 1777858332 | 5.56° C | 58% | 1009.5 hPa | 0 mm | - | 0 W/m² | - |
| 1777858028 | 5.56° C | 57% | 1009.5 hPa | 0 mm | - | 0 W/m² | - |
| 1777857727 | 6.11° C | 57% | 1009.5 hPa | 0 mm | - | 0 W/m² | - |
| 1777857423 | 6.67° C | 56% | 1009.4 hPa | 0 mm | - | 0 W/m² | - |
| 1777857120 | 6.67° C | 53% | 1009.5 hPa | 0 mm | - | 0 W/m² | - |
| 1777856815 | 6.67° C | 52% | 1009.2 hPa | 0 mm | - | 0 W/m² | - |
| 1777856511 | 7.22° C | 50% | 1009.2 hPa | 0 mm | - | 0 W/m² | - |
| 1777856208 | 7.22° C | 50% | 1009.4 hPa | 0 mm | - | 0 W/m² | - |
* Rain latest hour (hover to see other rain measurements)
** Current wind speed in m/s (hover to see current wind gust speed)